TimeMDT,TemperatureF,Dew PointF,Humidity,Sea Level PressureIn,VisibilityMPH,Wind Direction,Wind SpeedMPH,Gust SpeedMPH,PrecipitationIn,Events,Conditions,WindDirDegrees,DateUTC
12:15 AM,39.2,15.8,39,30.14,10.0,NNE,3.5,-,N/A,,Clear,20,2012-10-06 06:15:00
12:35 AM,37.4,15.8,41,30.14,10.0,Calm,Calm,-,N/A,,Clear,0,2012-10-06 06:35:00
12:55 AM,37.4,17.6,45,30.14,10.0,ENE,4.6,-,N/A,,Clear,60,2012-10-06 06:55:00
1:15 AM,37.4,17.6,45,30.14,10.0,East,3.5,-,N/A,,Clear,100,2012-10-06 07:15:00
1:35 AM,39.2,17.6,42,30.14,10.0,Calm,Calm,-,N/A,,Clear,0,2012-10-06 07:35:00
1:55 AM,44.6,17.6,34,30.14,10.0,West,10.4,-,N/A,,Clear,260,2012-10-06 07:55:00
2:15 AM,48.2,10.4,22,30.15,10.0,West,9.2,-,N/A,,Clear,270,2012-10-06 08:15:00
2:35 AM,46.4,10.4,23,30.15,10.0,West,8.1,-,N/A,,Clear,260,2012-10-06 08:35:00
2:55 AM,46.4,10.4,23,30.15,10.0,WSW,6.9,-,N/A,,Clear,250,2012-10-06 08:55:00
3:35 AM,46.4,10.4,23,30.15,10.0,SW,8.1,-,N/A,,Clear,230,2012-10-06 09:35:00
3:55 AM,46.4,10.4,23,30.14,10.0,WSW,9.2,-,N/A,,Clear,240,2012-10-06 09:55:00
4:15 AM,46.4,10.4,23,30.14,10.0,SW,8.1,-,N/A,,Scattered Clouds,230,2012-10-06 10:15:00
4:35 AM,46.4,8.6,22,30.14,10.0,WSW,6.9,-,N/A,,Mostly Cloudy,240,2012-10-06 10:35:00
4:55 AM,46.4,8.6,22,30.14,10.0,WSW,9.2,-,N/A,,Partly Cloudy,240,2012-10-06 10:55:00
5:15 AM,44.6,8.6,23,30.14,10.0,WSW,5.8,-,N/A,,Clear,250,2012-10-06 11:15:00
5:35 AM,44.6,8.6,23,30.15,10.0,West,4.6,-,N/A,,Clear,280,2012-10-06 11:35:00
5:55 AM,44.6,8.6,23,30.15,10.0,West,4.6,-,N/A,,Clear,270,2012-10-06 11:55:00
6:15 AM,44.6,6.8,21,30.16,10.0,WSW,3.5,-,N/A,,Clear,240,2012-10-06 12:15:00
6:35 AM,44.6,8.6,23,30.16,10.0,SW,5.8,-,N/A,,Clear,220,2012-10-06 12:35:00
6:55 AM,42.8,8.6,25,30.16,10.0,SSW,6.9,-,N/A,,Clear,200,2012-10-06 12:55:00
7:35 AM,42.8,8.6,25,30.17,10.0,SSW,8.1,-,N/A,,Clear,200,2012-10-06 13:35:00
7:55 AM,42.8,8.6,25,30.18,10.0,SSW,9.2,-,N/A,,Clear,210,2012-10-06 13:55:00
8:15 AM,44.6,8.6,23,30.18,10.0,SSW,9.2,-,N/A,,Clear,210,2012-10-06 14:15:00
8:35 AM,44.6,8.6,23,30.18,10.0,SSW,9.2,-,N/A,,Clear,210,2012-10-06 14:35:00
8:55 AM,44.6,8.6,23,30.19,10.0,SW,8.1,-,N/A,,Clear,220,2012-10-06 14:55:00
9:15 AM,46.4,8.6,22,30.20,10.0,SW,6.9,-,N/A,,Clear,230,2012-10-06 15:15:00
9:35 AM,46.4,8.6,22,30.20,10.0,NNE,6.9,-,N/A,,Clear,30,2012-10-06 15:35:00
9:55 AM,48.2,10.4,22,30.20,10.0,NNW,5.8,-,N/A,,Clear,330,2012-10-06 15:55:00
10:15 AM,48.2,8.6,20,30.20,10.0,North,11.5,16.1,N/A,,Clear,360,2012-10-06 16:15:00
10:35 AM,50.0,10.4,20,30.20,10.0,SW,5.8,19.6,N/A,,Clear,230,2012-10-06 16:35:00
10:55 AM,50.0,8.6,19,30.19,10.0,NNE,11.5,-,N/A,,Clear,20,2012-10-06 16:55:00
11:15 AM,50.0,8.6,19,30.19,10.0,East,5.8,-,N/A,,Clear,90,2012-10-06 17:15:00
11:35 AM,51.8,8.6,18,30.18,10.0,South,5.8,-,N/A,,Clear,180,2012-10-06 17:35:00
11:55 AM,53.6,6.8,15,30.17,10.0,SW,16.1,20.7,N/A,,Clear,230,2012-10-06 17:55:00
12:15 PM,53.6,6.8,15,30.16,10.0,SW,17.3,26.5,N/A,,Clear,230,2012-10-06 18:15:00
12:35 PM,53.6,5.0,14,30.16,10.0,SW,15.0,25.3,N/A,,Clear,230,2012-10-06 18:35:00
12:55 PM,53.6,3.2,13,30.16,10.0,WSW,16.1,25.3,N/A,,Clear,240,2012-10-06 18:55:00
1:15 PM,53.6,3.2,13,30.15,10.0,WSW,16.1,26.5,N/A,,Clear,250,2012-10-06 19:15:00
1:55 PM,53.6,3.2,13,30.13,10.0,SW,17.3,24.2,N/A,,Clear,230,2012-10-06 19:55:00
2:15 PM,53.6,3.2,13,30.12,10.0,SW,15.0,23.0,N/A,,Clear,230,2012-10-06 20:15:00
2:35 PM,53.6,3.2,13,30.12,10.0,SW,12.7,25.3,N/A,,Clear,230,2012-10-06 20:35:00
3:15 PM,55.4,3.2,12,30.11,10.0,WSW,13.8,20.7,N/A,,Clear,240,2012-10-06 21:15:00
3:35 PM,53.6,3.2,13,30.10,10.0,SW,19.6,26.5,N/A,,Clear,230,2012-10-06 21:35:00
3:55 PM,53.6,1.4,12,30.11,10.0,WSW,16.1,25.3,N/A,,Clear,250,2012-10-06 21:55:00
4:15 PM,53.6,1.4,12,30.11,10.0,West,16.1,28.8,N/A,,Clear,270,2012-10-06 22:15:00
5:15 PM,53.6,1.4,12,30.11,10.0,West,16.1,21.9,N/A,,Clear,260,2012-10-06 23:15:00
5:55 PM,53.6,1.4,12,30.11,10.0,West,15.0,21.9,N/A,,Clear,280,2012-10-06 23:55:00
6:15 PM,51.8,-0.4,12,30.11,10.0,West,15.0,20.7,N/A,,Clear,280,2012-10-07 00:15:00
6:35 PM,51.8,-0.4,12,30.12,10.0,West,9.2,19.6,N/A,,Clear,280,2012-10-07 00:35:00
6:55 PM,50.0,-0.4,13,30.12,10.0,WNW,5.8,-,N/A,,Clear,300,2012-10-07 00:55:00
7:15 PM,48.2,-2.2,12,30.12,10.0,NW,5.8,-,N/A,,Clear,310,2012-10-07 01:15:00
7:35 PM,46.4,-2.2,13,30.12,10.0,NW,6.9,-,N/A,,Clear,320,2012-10-07 01:35:00
8:15 PM,41.0,-2.2,16,30.14,10.0,Calm,Calm,-,N/A,,Clear,0,2012-10-07 02:15:00
8:35 PM,39.2,1.4,21,30.14,10.0,SE,4.6,-,N/A,,Clear,140,2012-10-07 02:35:00
8:55 PM,37.4,1.4,22,30.14,10.0,NE,3.5,-,N/A,,Clear,50,2012-10-07 02:55:00
9:15 PM,39.2,5.0,24,30.15,10.0,North,4.6,-,N/A,,Clear,360,2012-10-07 03:15:00
9:35 PM,39.2,3.2,22,30.15,10.0,Calm,Calm,-,N/A,,Partly Cloudy,0,2012-10-07 03:35:00
9:55 PM,39.2,3.2,22,30.15,10.0,North,6.9,-,N/A,,Clear,350,2012-10-07 03:55:00
10:15 PM,37.4,1.4,22,30.16,10.0,NW,4.6,-,N/A,,Clear,310,2012-10-07 04:15:00
10:35 PM,37.4,1.4,22,30.16,10.0,NNW,6.9,-,N/A,,Clear,330,2012-10-07 04:35:00
10:55 PM,37.4,1.4,22,30.16,10.0,North,3.5,-,N/A,,Clear,350,2012-10-07 04:55:00
11:15 PM,35.6,3.2,26,30.16,10.0,Calm,Calm,-,N/A,,Clear,0,2012-10-07 05:15:00
11:35 PM,37.4,3.2,24,30.15,10.0,NNW,4.6,-,N/A,,Clear,330,2012-10-07 05:35:00
11:55 PM,37.4,3.2,24,30.15,10.0,Calm,Calm,-,N/A,,Partly Cloudy,0,2012-10-07 05:55:00